Regional Weather Roundup
Issued by NWS

Home | Current Version | Previous Version | Graphics & Text | Print | Product List | Glossary On
Versions: 1 2 3 4 5 6 7 8 9 10 11 12 13 14 15 16 17 18 19 20 21 22 23 24 25 26 27 28 29 30 31 32 33 34 35 36 37 38 39 40 41 42 43 44 45 46 47 48 49 50
000
ASUS43 KLOT 272212
RWRIL

ILLINOIS REGIONAL WEATHER ROUNDUP
NATIONAL WEATHER SERVICE CHICAGO/ROMEOVILLE IL
500 PM CDT MON JUL 27 2015

NOTE: "FAIR" INDICATES FEW OR NO CLOUDS BELOW 12,000 FEET WITH NO
SIGNIFICANT WEATHER AND/OR OBSTRUCTIONS TO VISIBILITY.

* THESE STATIONS ARE NOT UNDER NWS QUALITY CONTROL. THEY ALSO MAY NOT
  REPORT WEATHER SUCH AS PRECIPITATION OR FOG.

ILZ001-002-007-009-015-016-024-272300-
NORTHWEST ILLINOIS

CITY           SKY/WX    TMP DP  RH WIND       PRES   REMARKS
MOLINE         FAIR      84  71  65 SE8       29.94F HX  89
STERLING*      FAIR      86  72  62 E5        29.95F HX  92
SAVANNA*       FAIR      86  70  58 SE5       29.96F HX  90
$$

ILZ003-004-008-010-011-017-018-272300-
NORTH CENTRAL ILLINOIS

CITY           SKY/WX    TMP DP  RH WIND       PRES   REMARKS
ROCKFORD       PTSUNNY   87  65  47 E7        29.99S HX  89
FREEPORT*      FAIR      83  69  63 SE3       30.00S HX  87
ROCHELLE*      FAIR      84  69  61 SE6       29.99R HX  88
DE KALB*       FAIR      84  65  52 S5        29.99S HX  85
PERU*          FAIR      86  67  52 SE9       29.96F HX  89
$$

ILZ005-006-012>014-019>023-272300-
NORTHEAST ILLINOIS

CITY           SKY/WX    TMP DP  RH WIND       PRES   REMARKS
CHICAGO-OHARE  PTSUNNY   85  62  46 E13       29.97F HX  85
CHICAGO-MIDWAY PTSUNNY   87  61  41 E16       29.97F HX  87
AURORA         FAIR      86  64  47 SE5       29.97F HX  87
LANSING*       FAIR      86  60  41 NE10      29.98F HX  85
JOLIET*        FAIR      87  64  46 SE9       29.96F HX  88
WAUKEGAN       FAIR      81  64  56 NE6       30.00F HX  82
DUPAGE AIRPORT FAIR      87  61  41 SE7       29.97F HX  87
KANKAKEE*      FAIR      85  73  67 E7        29.96F HX  91
WHEELING       FAIR      84  63  49 NE9       30.00F HX  85
MORRIS*        FAIR      84  69  60 SE7       29.95F HX  88
ROMEOVILLE*    FAIR      86  54  33 SE7       29.97F HX  84
NORTHERLY ISL    N/A     79  68  69 NE8         N/A  HX  81
$$

LMZ740>746-272300-
SOUTHERN LAKE MICHIGAN

STATION/POSITION SKY/WX   TEMP    WIND        PRES    VSBY  WAVE
                          AIR SEA DIR/SP/G                  HT/PER
                          (F)     (DEG/KT/KT) (MB)    (MI)  (FT/S)
HARRISON CRIB              75      30/ 10/ 12   N/A
BURNHAM HARBOR             79      60/  6/  9   N/A
CALUMET HARBOR             80      10/  9/ 12   N/A
BURNS HARBOR               76      30/ 10/ 13 1016.3S
MICHIGAN CITY              76     360/ 11/ 12   N/A
MICHIGAN CITY 6N           76 76   40/ 10/ 12   N/A           1/ 2
ST. JOSEPH                 76 76   60/ 10/ 12   N/A           1/ 2
$$

ILZ025>027-034>036-040-047-049-050-058-095>099-272300-
WEST-CENTRAL ILLINOIS

CITY           SKY/WX    TMP DP  RH WIND       PRES   REMARKS
QUINCY         FAIR      88  74  63 E10       29.90F HX  96
GALESBURG*     PTSUNNY   82  71  70 CALM      29.95F HX  86
MACOMB*        FAIR      83  75  78 NE6       29.96F HX  90
JACKSONVILLE*  FAIR      88  77  69 NE6       29.91F HX 101
PITTSFIELD*    FAIR      89  76  65 NE6       29.92S HX 100
$$

ILZ028>032-037-038-041>044-048-051>054-059>061-272300-
CENTRAL ILLINOIS

CITY           SKY/WX    TMP DP  RH WIND       PRES   REMARKS
PONTIAC        FAIR      86  74  68 E8        29.96F HX  94
BLOOMINGTON    FAIR      88  74  63 E9        29.96F HX  96
DECATUR        FAIR      88  74  63 NE8       29.93F HX  96
PEORIA         FAIR      88  70  55 SE6       29.94F HX  93
LACON*         FAIR      85  70  61 E5        29.95S HX  89
LINCOLN*       FAIR      88  72  58 E6        29.92F HX  95
SPRINGFIELD    CLOUDY    89  74  60 NE8       29.92F HX  98
TAYLORVILLE    PTSUNNY   86  75  70 NE5       29.92S HX  95
$$

ILZ033-039-045-046-055>057-062-063-272300-
EAST-CENTRAL ILLINOIS

CITY           SKY/WX    TMP DP  RH WIND       PRES   REMARKS
CHAMPAIGN      FAIR      85  72  65 NE3       29.94F HX  91
DANVILLE*      FAIR      85  73  67 E3        29.92F HAZE    HX  91
RANTOUL*       FAIR      86  73  65 CALM      29.95F HX  93
MATTOON        FAIR      86  73  65 NE8       29.92F HAZE    HX  93
PARIS*         CLOUDY    86  76  71 E7        29.94F HX  95
$$

ILZ079-100>102-272300-
SOUTHWEST ILLINOIS

CITY           SKY/WX    TMP DP  RH WIND       PRES   REMARKS
ALTON          MOSUNNY   88  72  58 E6        29.91R HX  94
BELLEVILLE     FAIR      80  73  78 SW5       29.89F HX  84
CAHOKIA*       PTSUNNY   83  72  69 VRB5      29.90R HX  88
SPARTA*        TSTM      74  69  85 NE14G20   29.94R
$$

ILZ064>066-069>071-074>076-080>082-084>086-088>090-092>094-272300-
SOUTH-CENTRAL ILLINOIS

CITY           SKY/WX    TMP DP  RH WIND       PRES   REMARKS
CARBONDALE     FAIR      91  78  65 S7        29.90S HX 106
CAIRO*         FAIR      90  79  70 S9        29.90S HX 105
EFFINGHAM*     FAIR      89  71  54 CALM      29.93S HX  95
MARION         PTSUNNY   91  81  70 S6        29.92R HX 110
MT. VERNON     PTSUNNY   84  73  70 CALM      29.92R HX  91
CENTRALIA*     FAIR      87  77  72 CALM      29.92R HX  98
SALEM*         FAIR      90  76  64 CALM      29.92R HX 101
METROPOLIS*    PTSUNNY   91  81  71 S5        29.91F HX 110
$$

ILZ067-068-072-073-078-083-087-091-272300-
SOUTHEAST ILLINOIS

CITY           SKY/WX    TMP DP  RH WIND       PRES   REMARKS
LAWRENCEVILLE  FAIR      89  76  65 SE5       29.91F HX 100
FLORA*         FAIR      89  74  61 CALM      29.92R HX  98
FAIRFIELD*     FAIR      89  78  70 CALM      29.91S HX 102
HARRISBURG*    PTSUNNY   80  76  86 NE9G16    29.92R THUNDER HX  86
ROBINSON*      FAIR      89  74  61 CALM      29.91F HX  97
CARMI*         FAIR      87  73  64 E6        29.90F HX  94
$$

ABBREVIATIONS USED IN REMARKS
   TC - TEMPERATURE IN CELSIUS
  WCI - WIND CHILL INDEX
   HX - HEAT INDEX
  VSB - VISIBILITY
$$



USA.gov is the U.S. government's official web portal to all federal, state and local government web resources and services.